White Rock, British Columbia

9:22 AM PST on December 15, 2017 (GMT -0800)
White Rock

Weather History for CWWK - January, 2014

Change the Weather History Date:

Friday, January 31, 2014

  Actual Average Record
Temperature  
Mean Temperature 38 °F -  
Max Temperature 45 °F - - ()
Min Temperature 29 °F - - ()
Degree Days  
Heating Degree Days 27    
Moisture  
Dew Point 24 °F    
Average Humidity 59    
Maximum Humidity 87    
Minimum Humidity 40    
Precipitation  
Precipitation 0.00 in - - ()
Sea Level Pressure  
Sea Level Pressure 30.11 in    
Wind  
Wind Speed 2 mph ()    
Max Wind Speed 4 mph    
Max Gust Speed -    
T = Trace of Precipitation, MM = Missing Value Source: Averaged Metar Reports

Daily Weather History Graph

Daily Weather History Graph

Search for Another Location

Airport or City:

Trip Planner

Search our weather history database for the weather conditions in past years. The results will help you decide how hot, cold, wet, or windy it might be!

Date:

Astronomy

Jan. 31, 2014 Rise Set
Actual Time 7:42 AM PST 5:06 PM PST
Civil Twilight 7:08 AM PST 5:41 PM PST
Nautical Twilight 6:30 AM PST 6:19 PM PST
Astronomical Twilight 5:53 AM PST 6:56 PM PST
Moon 7:46 AM PST (1/31) 6:49 PM PST (1/31)
Length of Visible Light 10h 32m
Length of Day
9h 24m
New Moon, 1% of the Moon is Illuminated
Jan 31
New Moon
Feb 6
First Quarter
Feb 14
Full
Feb 22
Last Quarter
Mar 1
New

Hourly Weather History & Observations

Time (PST) Temp. Windchill Dew Point Humidity Pressure Visibility Wind Dir Wind Speed Gust Speed Precip Events Conditions
12:00 AM 37.6 °F 35.1 °F 25.0 °F 60% 29.99 in - East 3.5 mph - N/A   Unknown
1:00 AM 36.9 °F 34.3 °F 23.7 °F 59% 30.00 in - ENE 3.5 mph - N/A   Unknown
2:00 AM 34.7 °F - 23.5 °F 64% 30.01 in - NE 2.3 mph - N/A   Unknown
3:00 AM 36.1 °F - 23.0 °F 59% 30.02 in - ENE 2.3 mph - N/A   Unknown
4:00 AM 36 °F - 23 °F 46% 30.04 in - NE 2.3 mph - -  
4:00 AM 36.0 °F - 22.6 °F 58% 30.04 in - NE 2.3 mph - N/A   Unknown
5:00 AM 35.4 °F 32.6 °F 22.6 °F 60% 30.04 in - NE 3.5 mph - N/A   Unknown
6:00 AM 35.1 °F - 22.3 °F 60% 30.06 in - NE 2.3 mph - N/A   Unknown
7:00 AM 31.3 °F - 21.7 °F 68% 30.08 in - NE 1.2 mph - N/A   Unknown
8:00 AM 31.8 °F - 21.4 °F 65% 30.09 in - ENE 2.3 mph - N/A   Unknown
9:00 AM 35.1 °F 32.2 °F 21.2 °F 57% 30.11 in - ENE 3.5 mph - N/A   Unknown
10:00 AM 38 °F - 22 °F 40% 30.13 in - ENE 3.5 mph - -  
10:00 AM 37.6 °F 35.1 °F 22.1 °F 54% 30.13 in - ENE 3.5 mph - N/A   Unknown
11:00 AM 42.4 °F 40.7 °F 23.2 °F 47% 30.14 in - ENE 3.5 mph - N/A   Unknown
12:00 PM 44.1 °F 42.5 °F 23.2 °F 44% 30.13 in - East 3.5 mph - N/A   Unknown
1:00 PM 44.6 °F - 23.7 °F 44% 30.13 in - SW 2.3 mph - N/A   Unknown
2:00 PM 42.4 °F 40.7 °F 27.0 °F 54% 30.14 in - West 3.5 mph - N/A   Unknown
3:00 PM 44.1 °F 42.5 °F 28.2 °F 54% 30.14 in - West 3.5 mph - N/A   Unknown
4:00 PM 43 °F - 29 °F 45% 30.16 in - WSW 2.3 mph - -  
4:00 PM 43.2 °F - 28.6 °F 56% 30.16 in - WSW 2.3 mph - N/A   Unknown
5:00 PM 40.3 °F - 30.0 °F 67% 30.16 in - WSW 1.2 mph - N/A   Unknown
6:00 PM 36.9 °F - 29.7 °F 75% 30.16 in - Calm Calm - N/A   Unknown
7:00 PM 32.9 °F - 29.3 °F 87% 30.17 in - Calm Calm - N/A   Unknown
8:00 PM 33.8 °F - 23.4 °F 66% 30.18 in - NNE 2.3 mph - N/A   Unknown
9:00 PM 31.3 °F - 24.3 °F 75% 30.19 in - NNE 1.2 mph - N/A   Unknown
10:00 PM 31 °F - 22 °F 58% 30.19 in - NNE 2.3 mph - -  
10:00 PM 31.3 °F - 21.9 °F 68% 30.19 in - NNE 2.3 mph - N/A   Unknown
11:00 PM 29.8 °F - 21.4 °F 71% 30.20 in - NNE 2.3 mph - N/A   Unknown